HULIANWAN GAOGUI-01 (H*)

Last updated on Wed Dec 17 2025 00:02:54 GMT+0000 (Coordinated Universal Time)

1 59069U 24040A 25350.27787949 .00000179 00000+0 00000+0 0 9992 2 59069 0.0433 319.6022 0002964 1.7371 257.5044 1.00270732 5491
UTC large
Height (km)
Speed (km/s)
/
Latitude / Longitude
Inclination (degrees)
Orbital Period (minutes)
Azimuth
Elevation
Range (km)
Doppler Factor

Next 0 passes for location: London (51.5072 / 0.1276)

Sorry there are no passes over London.